World > North America > United States > New Jersey

Fredon, New Jersey Regional Weather

Lat: 41.04N, Lon: 74.81W
Wx Zone: NJZ001
Warning FLW WEATHER ALERT - (More Info. Click Here) Warning
Feedback

Fredon, NJ Regional Weather

Expires:201907210000;;375566
ASUS41 KOKX 202314
RWROKX

Regional Weather Roundup
National Weather Service New York NY
700 PM EDT SAT JUL 20 2019

Note: "FAIR" indicates few or no clouds below 12,000 feet with no
significant weather and/or obstructions to visibility.


NJZ001-105-106-008-010-013-015-019>022-104-210000-
New Jersey
  
CITY           SKY/WX    TMP DP  RH WIND       PRES   REMARKS
Newark/Liberty PTSUNNY   95  71  45 SW17      29.79R HX 102           
Teterboro      FAIR      94  71  47 W13G22    29.77R HX 101           
Caldwell       FAIR      94  73  50 SW6       29.80R HX 103           
Somerville     FAIR      92  73  53 CALM      29.79R HX 100           
Linden         FAIR      95  69  41 W10G17    29.80R HX 100           
Perth Amboy      N/A     93 N/A N/A W14         N/A                   
Sussex         TSTM      77  71  82 W7        29.86R                  
Andover          N/A     90  74  59 SW6       29.84R HX  99           
Trenton        FAIR      93  73  52 W8        29.81R HX 102           
Millville      FAIR      91  78  65 SW3       29.84R HX 106           
Atlantic City  FAIR      94  75  54 SW10      29.83R HX 105           
Wrightstown    FAIR      92  74  56 SW12      29.80S HX 102           
Toms River     FAIR      94  78  60 SW10      29.83R HX 110           
Belmar         FAIR      93  75  55 SW7       29.82R HX 104           
$$
 

SKY/WX - Weather  TMP - Temperature  DP - Dew Point  RH - Relative Humidity
WIND - Wind Direction/Speed PRES - Barometric Pressure VSB - Visibility
WCI - Wind Chill Index E13G22 Wind - East Wind 13 mph/Gusts of 22 mph